Location: PACMO
(41.3967°N, 90.3760°W)
Time: 09:10:33
(UTC-05:00)

NOAA 19 - Visible Passes

Search period start: 24 March 2017 00:00
Search period end: 03 April 2017 00:00
Orbit: 841 x 862 km, 99.1° (Epoch: 22 March)

Date Brightness Start Highest point End Pass type
(mag) Time Alt. Az. Time Alt. Az. Time Alt. Az.
24 Mar 7.5 03:13:42 10° NE 03:17:02 16° E 03:17:30 16° E visible
24 Mar 5.1 04:52:45 10° N 04:58:10 66° WNW 04:59:33 48° SW visible
25 Mar 7.7 03:03:11 10° ENE 03:05:25 12° E 03:06:04 12° E visible
25 Mar 5.0 04:41:15 10° NNE 04:46:44 82° WNW 04:48:06 53° SSW visible
25 Mar 7.0 06:24:31 10° NW 06:26:32 12° WNW 06:28:34 10° WNW visible
26 Mar 5.2 04:29:47 10° NNE 04:35:17 80° ESE 04:36:39 52° S visible
26 Mar 6.9 06:12:15 10° NNW 06:15:16 15° WNW 06:18:16 10° W visible
27 Mar 5.5 04:18:22 10° NNE 04:23:48 63° ESE 04:25:11 47° SSE visible
27 Mar 6.6 06:00:16 10° NNW 06:03:57 19° WNW 06:07:13 11° W visible
28 Mar 5.9 04:07:00 10° NNE 04:12:18 49° E 04:13:44 40° SE visible
28 Mar 6.4 05:48:25 10° NNW 05:52:38 23° WNW 05:55:45 14° WSW visible
29 Mar 6.3 03:55:41 10° NNE 04:00:47 39° E 04:02:15 33° SE visible
29 Mar 6.1 05:36:41 10° N 05:41:17 29° WNW 05:44:18 18° WSW visible
30 Mar 6.7 03:44:26 10° NE 03:49:15 31° E 03:50:48 27° SE visible
30 Mar 5.9 05:25:00 10° N 05:29:55 35° WNW 05:32:50 21° WSW visible
31 Mar 7.0 03:33:17 10° NE 03:37:41 24° E 03:39:20 21° ESE visible
31 Mar 5.6 05:13:22 10° N 05:18:32 44° WNW 05:21:22 24° SW visible
01 Apr 7.3 03:22:16 10° NE 03:26:07 19° E 03:27:52 17° ESE visible
01 Apr 5.3 05:01:47 10° N 05:07:08 56° WNW 05:09:55 27° SW visible
02 Apr 7.6 03:11:27 10° ENE 03:14:30 15° E 03:16:24 13° ESE visible
02 Apr 5.1 04:50:15 10° N 04:55:42 70° WNW 04:58:26 30° SSW visible
